{"data":{"norad_id":46907,"intl_designator":"2020-081C","name":"KSM1-D","alt_names":[],"object_type":"PAYLOAD","status":"ACTIVE","operator":null,"country":"LUXE","launch_date":"2020-11-07","launch_site_code":"SRILR","launch_vehicle":null,"mission":null,"orbit_class":"UNKNOWN","rcs_meters":null,"size_class":null,"mass_kg":null,"dimensions":null,"purposes":[],"wikipedia_slug":null,"has_3d_model":false,"image_url":null,"decayed_at":null,"tle_current":{"epoch":"2026-05-25T05:44:23.956224Z","epoch_age_seconds":48275,"freshness":"FRESH","line1":"1 46907U 20081C   26145.23916616  .00006181  00000+0  25040-3 0  9998","line2":"2 46907  36.8958 209.1448 0002738  55.8817 304.2191 15.24360743305596","mean_motion":15.24360743,"eccentricity":0.0002738,"inclination_deg":36.8958,"raan_deg":209.1448,"arg_perigee_deg":55.8817,"mean_anomaly_deg":304.2191,"bstar":0.0002504,"rev_number":30559,"period_min":94.46582815863,"perigee_km":490.82443362156,"apogee_km":494.58690706784,"semimajor_km":6870.8426703447,"source":"CELESTRAK","updated_at":"2026-05-25T13:37:56.367845Z"}}}